[[{"header":{"parameterUnit":"m.s-1","parameterCategory":1,"la1":30.2991,"la2":30.254,"lo1":-89.0895,"lo2":-89.0444,"dy":0.0017,"dx":0.0017,"nx":28,"ny":28,"refTime":"2023-03-13T21:00:00:Z","depth":0,"parameterNumber":2,"parameterNumberName":"U-component_of_WINDS"},"data":[0,0,0,0,0,0,0,0,0,0,0,0,0,0,0,0,0,0,0,0,0,0,0,0,0,0,0,0,0,0,0,0,0,0,0,0,0,0,0,0,0,0,0,0,0,0,0,0,0,0,0,0,0,0,0,0,0,0,-3.4015,-3.4016,0,-3.4046,-3.4046,-3.4046,-3.3969,-3.3967,-3.3965,-3.3962,-3.3994,-3.3997,-3.4,0,0,0,0,0,0,0,0,0,0,0,0,0,-3.389,-3.3893,-3.4015,-3.4016,-3.4016,-3.4046,-3.4046,-3.4046,-3.397,-3.3967,-3.3964,-3.3961,-3.3993,-3.3996,-3.4,0,0,0,0,0,0,0,0,0,0,0,0,0,-3.3935,-3.3894,-3.4015,-3.3981,-3.3979,-3.4046,-3.4046,-3.4047,-3.397,-3.3967,-3.3963,-3.396,-3.3991,-3.3996,-3.4,-3.4102,0,0,-3.4015,-3.4017,0,0,0,0,0,0,0,0,-3.3933,-3.394,-3.3986,-3.3984,-3.3981,-3.4,-3.4013,-3.4065,-3.3971,-3.3974,-3.3962,-3.3958,-3.3999,-3.4002,-3.4016,-3.4103,-3.4104,-3.4015,-3.4018,-3.402,-3.4021,0,0,0,0,0,0,0,-3.393,-3.3938,-3.4027,-3.3987,-3.3984,-3.3965,-3.3967,-3.4023,-3.4006,-3.3973,-3.3968,-3.3972,-3.3997,-3.4012,-3.4016,-3.4105,-3.4015,-3.4019,-3.4022,-3.4024,-3.4277,-3.428,0,0,0,0,0,0,-3.3931,-3.3936,-3.4026,-3.4028,-3.3947,-3.397,-3.3972,-3.3998,-3.4005,-3.4003,-3.3975,-3.3969,-3.4006,-3.4011,-3.4017,-3.4137,-3.402,-3.4024,-3.4027,-3.4273,-3.4277,-3.4282,0,0,0,0,0,0,-3.3929,-3.394,-3.4025,-3.3981,-3.399,-3.3976,-3.4005,-3.4,-3.4015,-3.4007,-3.4004,-3.3994,-3.4003,-3.4011,-3.4081,-3.4137,-3.4026,-3.403,-3.4268,-3.4274,-3.428,-3.4377,0,0,0,0,0,0,-3.3925,-3.3939,-3.3978,-3.3982,-3.3993,-3.4089,-3.4008,-3.4003,-3.4023,-3.4015,-3.4024,-3.4022,-3.4001,-3.4075,-3.4086,-3.4141,-3.4034,-3.4263,-3.4271,-3.4278,-3.4369,-3.4385,-3.44,0,0,0,0,0,-3.3921,-3.4004,-3.398,-3.3992,-3.404,-3.4092,-3.4098,-3.4073,-3.4028,-3.4067,-3.4061,-3.4021,-3.4129,-3.4083,-3.4094,-3.4152,-3.4259,-3.4268,-3.4277,-3.4362,-3.4382,-3.4399,0,0,0,0,0,0,-3.4007,-3.4004,-3.3978,-3.4064,-3.4079,-3.4079,-3.4127,-3.4095,-3.4123,-3.4114,-3.4081,-3.4084,-3.4161,-3.4163,-3.4112,-3.425,-3.4186,-3.4198,-3.4247,-3.4266,-3.4281,-3.428,-3.4038,0,0,0,0,0,-3.4035,-3.4078,-3.4073,-3.415,-3.4159,-3.4142,-3.4164,-3.4142,-3.4157,-3.4163,-3.4162,-3.4178,-3.4215,-3.424,-3.4274,-3.4368,-3.4369,-3.4413,-3.4429,-3.4441,-3.4452,-3.4503,-3.4523,-3.4311,-3.4311,-3.4311,0,0,-3.4096,-3.4099,-3.4128,-3.4167,-3.4176,-3.4221,-3.4148,-3.4198,-3.4231,-3.417,-3.4237,-3.4238,-3.4253,-3.4336,-3.4372,-3.434,-3.4511,-3.4453,-3.4463,-3.4467,-3.4514,-3.4534,-3.4552,-3.4317,-3.4316,-3.4315,0,0,-3.4229,-3.4235,-3.43,-3.4311,-3.4326,-3.4314,-3.433,-3.4335,-3.4333,-3.44,-3.4355,-3.4393,-3.4458,-3.4471,-3.4486,-3.4623,-3.4588,-3.4635,-3.4716,-3.4766,-3.4783,-3.4798,-3.4848,-3.4866,-3.4645,-3.4646,-3.4646,0,-3.4302,-3.4368,-3.4338,-3.4392,-3.4411,-3.4357,-3.4423,-3.4434,-3.446,-3.4474,-3.4437,-3.4517,-3.4523,-3.4609,-3.4643,-3.4656,-3.4673,-3.4634,-3.4783,-3.4797,-3.4811,-3.4858,-3.4877,-3.4651,-3.4651,-3.465,-3.4649,0,-3.4457,-3.4504,-3.4555,-3.4581,-3.4605,-3.4665,-3.4644,-3.4672,-3.4648,-3.464,-3.4709,-3.4714,-3.4749,-3.4767,-3.4744,-3.485,-3.4829,-3.4788,-3.4724,-3.4837,-3.4881,-3.4899,-3.466,-3.4657,-3.4656,-3.4654,0,0,-3.4646,-3.4655,-3.4674,-3.4686,-3.4698,-3.4733,-3.479,-3.4824,-3.4849,-3.4867,-3.4915,-3.4971,-3.4933,-3.495,-3.4928,-3.4971,-3.5081,-3.4925,-3.4925,-3.4955,-3.5199,-3.5231,-3.5253,-3.5057,-3.5061,-3.5063,-3.5198,0,-3.4779,-3.4878,-3.4852,-3.495,-3.4993,-3.4943,-3.4992,-3.5005,-3.4999,-3.5035,-3.5027,-3.5068,-3.5014,-3.5024,-3.5065,-3.506,-3.513,-3.5049,-3.5102,-3.5104,-3.5102,-3.5275,-3.531,-3.5437,-3.5215,-3.5218,-3.522,0,-3.4947,-3.4973,-3.5076,-3.5081,-3.5098,-3.5143,-3.5172,-3.5206,-3.522,-3.5212,-3.5231,-3.5201,-3.5257,-3.5191,-3.5268,-3.5214,-3.5233,-3.5234,-3.5238,-3.5244,-3.517,-3.5287,-3.5477,-3.5497,-3.5247,-3.5245,-3.5243,0,-3.5077,-3.5137,-3.5206,-3.5217,-3.5225,-3.5258,-3.5263,-3.5272,-3.5294,-3.5319,-3.5333,-3.5364,-3.5381,-3.5406,-3.5385,-3.5338,-3.5466,-3.5398,-3.5462,-3.5463,-3.5493,-3.5492,-3.569,-3.5503,-3.5503,-3.5503,-3.5502,0,-3.5228,-3.5293,-3.5264,-3.5307,-3.5379,-3.5348,-3.542,-3.5419,-3.5428,-3.547,-3.5427,-3.5467,-3.5435,-3.5473,-3.5456,-3.5524,-3.5531,-3.5527,-3.5523,-3.5532,-3.5533,-3.5546,-3.5537,-3.5508,-3.5506,-3.5505,-3.5505,0,-3.5386,-3.5369,-3.5441,-3.5442,-3.5444,-3.5497,-3.5498,-3.5538,-3.5528,-3.5581,-3.5592,-3.5577,-3.5619,-3.56,-3.5643,-3.5632,-3.5719,-3.5702,-3.5715,-3.5711,-3.5777,-3.5772,-3.5993,-3.602,-3.5814,-3.5816,-3.5818,0,-3.5485,-3.5534,-3.554,-3.5565,-3.5573,-3.5614,-3.5636,-3.5607,-3.5632,-3.5651,-3.5689,-3.5727,-3.5756,-3.5825,-3.5818,-3.5851,-3.5835,-3.591,-3.584,-3.5848,-3.5838,-3.5836,-3.5841,-3.5925,-3.5927,-3.5929,-3.593,0,-3.5662,-3.5651,-3.5685,-3.5716,-3.5743,-3.5766,-3.5785,-3.5808,-3.5781,-3.581,-3.5853,-3.5875,-3.592,-3.5958,-3.5987,-3.5992,-3.5958,-3.5952,-3.5969,-3.5981,-3.5987,-3.5986,-3.5755,-3.5948,-3.5946,-3.5945,-3.5944,-3.5943,-3.5794,-3.5836,-3.5847,-3.5886,-3.5897,-3.5916,-3.5954,-3.5949,-3.5984,-3.6018,-3.5999,-3.6049,-3.606,-3.6096,-3.6105,-3.6143,-3.6114,-3.6138,-3.6144,-3.6151,-3.6161,-3.5979,-3.6148,-3.6148,-3.6147,-3.6147,-3.6146,0,-3.5971,-3.5976,-3.6012,-3.604,-3.6071,-3.6034,-3.6054,-3.6082,-3.6126,-3.614,-3.617,-3.6219,-3.6256,-3.6251,-3.6285,-3.6317,-3.6302,-3.6327,-3.6325,-3.6327,-3.6184,-3.6167,-3.6339,-3.6338,-3.6338,-3.6338,-3.6338,-3.6338,-3.6067,-3.6135,-3.6126,-3.62,-3.6203,-3.6252,-3.6266,-3.6284,-3.6295,-3.6351,-3.6382,-3.6379,-3.6385,-3.6419,-3.6452,-3.645,-3.6465,-3.6496,-3.6488,-3.6356,-3.6337,-3.6319,-3.6302,-3.6499,-3.65,-3.6628,-3.6629,-3.663]},{"header":{"parameterUnit":"m.s-1","parameterCategory":1,"la1":30.2991,"la2":30.254,"lo1":-89.0895,"lo2":-89.0444,"dy":0.0017,"dx":0.0017,"nx":28,"ny":28,"refTime":"2023-03-13T21:00:00:Z","depth":0,"parameterNumber":3,"parameterNumberName":"V-component_of_WINDS"},"data":[0,0,0,0,0,0,0,0,0,0,0,0,0,0,0,0,0,0,0,0,0,0,0,0,0,0,0,0,0,0,0,0,0,0,0,0,0,0,0,0,0,0,0,0,0,0,0,0,0,0,0,0,0,0,0,0,0,0,-5.5494,-5.5495,0,-5.5547,-5.5548,-5.5549,-5.5499,-5.5497,-5.5495,-5.5493,-5.5543,-5.5546,-5.5549,0,0,0,0,0,0,0,0,0,0,0,0,0,-5.5345,-5.5348,-5.5494,-5.5495,-5.5495,-5.5547,-5.5548,-5.5549,-5.5499,-5.5497,-5.5495,-5.5492,-5.5542,-5.5546,-5.555,0,0,0,0,0,0,0,0,0,0,0,0,0,-5.5405,-5.5349,-5.5494,-5.5477,-5.5476,-5.5547,-5.5548,-5.5549,-5.55,-5.5497,-5.5494,-5.5491,-5.5541,-5.5546,-5.555,-5.5639,0,0,-5.5565,-5.5567,0,0,0,0,0,0,0,0,-5.5402,-5.541,-5.5479,-5.5479,-5.5478,-5.5514,-5.5514,-5.5579,-5.5501,-5.5491,-5.5493,-5.549,-5.5535,-5.554,-5.5557,-5.5641,-5.5643,-5.5565,-5.5568,-5.557,-5.5571,0,0,0,0,0,0,0,-5.5397,-5.5408,-5.5515,-5.548,-5.5479,-5.5465,-5.5471,-5.5526,-5.5529,-5.5491,-5.5488,-5.5495,-5.5534,-5.5552,-5.5558,-5.5644,-5.5565,-5.5569,-5.5572,-5.5574,-5.5803,-5.5806,0,0,0,0,0,0,-5.5396,-5.5405,-5.5513,-5.5517,-5.5432,-5.5471,-5.5476,-5.5505,-5.5528,-5.5529,-5.5498,-5.5493,-5.5546,-5.5552,-5.5559,-5.5665,-5.557,-5.5575,-5.5577,-5.58,-5.5804,-5.5807,0,0,0,0,0,0,-5.5393,-5.5406,-5.5511,-5.546,-5.5472,-5.5476,-5.5509,-5.5508,-5.5526,-5.5533,-5.5533,-5.5516,-5.5544,-5.5552,-5.562,-5.5666,-5.5577,-5.5581,-5.5796,-5.5801,-5.5806,-5.5876,0,0,0,0,0,0,-5.5389,-5.5405,-5.544,-5.5461,-5.5475,-5.5573,-5.5512,-5.5511,-5.5534,-5.5528,-5.555,-5.5551,-5.5542,-5.5613,-5.5624,-5.567,-5.5585,-5.5792,-5.5798,-5.5804,-5.587,-5.5883,-5.5894,0,0,0,0,0,-5.5384,-5.5457,-5.5442,-5.5456,-5.5519,-5.5575,-5.5583,-5.5573,-5.5538,-5.5573,-5.5577,-5.555,-5.5659,-5.562,-5.5633,-5.5681,-5.5789,-5.5797,-5.5804,-5.5864,-5.588,-5.5894,0,0,0,0,0,0,-5.544,-5.5459,-5.5443,-5.5526,-5.555,-5.5567,-5.561,-5.559,-5.5623,-5.5616,-5.56,-5.5605,-5.5677,-5.5685,-5.5642,-5.5768,-5.5718,-5.5728,-5.576,-5.5775,-5.5787,-5.5783,-5.5589,0,0,0,0,0,-5.5462,-5.5508,-5.5521,-5.5593,-5.5606,-5.5606,-5.563,-5.562,-5.5643,-5.5653,-5.5662,-5.5684,-5.5723,-5.5749,-5.5786,-5.587,-5.5874,-5.5909,-5.5922,-5.5932,-5.5941,-5.5986,-5.6001,-5.5831,-5.5831,-5.5831,0,0,-5.5508,-5.5524,-5.5554,-5.5605,-5.5622,-5.5668,-5.5615,-5.5666,-5.5699,-5.566,-5.5725,-5.5732,-5.5756,-5.5832,-5.5866,-5.5841,-5.5988,-5.5941,-5.5949,-5.5952,-5.5995,-5.6011,-5.6025,-5.5836,-5.5835,-5.5834,0,0,-5.5615,-5.5633,-5.5694,-5.5713,-5.574,-5.574,-5.5754,-5.5775,-5.5779,-5.5844,-5.5815,-5.5854,-5.5922,-5.594,-5.5958,-5.6072,-5.6048,-5.6084,-5.6147,-5.6191,-5.6205,-5.6217,-5.6257,-5.6272,-5.6093,-5.6093,-5.6093,0,-5.5668,-5.5739,-5.5728,-5.5781,-5.5804,-5.5772,-5.5833,-5.5851,-5.5888,-5.5904,-5.5876,-5.5961,-5.5974,-5.6054,-5.6082,-5.6098,-5.6113,-5.6082,-5.6204,-5.6216,-5.6227,-5.6265,-5.628,-5.6097,-5.6097,-5.6096,-5.6096,0,-5.5803,-5.5852,-5.5898,-5.5936,-5.5964,-5.6021,-5.6017,-5.6046,-5.6034,-5.6036,-5.6102,-5.6117,-5.6156,-5.6174,-5.6162,-5.6252,-5.6236,-5.6207,-5.6156,-5.6247,-5.6283,-5.6298,-5.6103,-5.6102,-5.61,-5.6099,0,0,-5.5947,-5.598,-5.5997,-5.6014,-5.6041,-5.6078,-5.6133,-5.6172,-5.6198,-5.6224,-5.6269,-5.6327,-5.63,-5.632,-5.6309,-5.6348,-5.6437,-5.6313,-5.6313,-5.6336,-5.6538,-5.656,-5.6578,-5.6421,-5.6424,-5.6426,-5.6536,0,-5.6056,-5.6154,-5.6146,-5.6237,-5.6282,-5.6252,-5.6299,-5.6321,-5.6324,-5.6361,-5.6363,-5.6405,-5.6366,-5.6378,-5.6415,-5.6419,-5.6478,-5.6411,-5.6462,-5.6464,-5.6458,-5.6597,-5.6621,-5.6724,-5.655,-5.6552,-5.6554,0,-5.6196,-5.623,-5.6327,-5.6347,-5.6366,-5.6409,-5.6444,-5.648,-5.6503,-5.6503,-5.6526,-5.6508,-5.6562,-5.6511,-5.6584,-5.6538,-5.6559,-5.6564,-5.6567,-5.6572,-5.6515,-5.6605,-5.6756,-5.6772,-5.6576,-5.6574,-5.6572,0,-5.6293,-5.6361,-5.6428,-5.6444,-5.6469,-5.6501,-5.6512,-5.6532,-5.6557,-5.6587,-5.6602,-5.6637,-5.6657,-5.6684,-5.6676,-5.6639,-5.6751,-5.6699,-5.6751,-5.6752,-5.6777,-5.6775,-5.6933,-5.6789,-5.6789,-5.6789,-5.6788,0,-5.6415,-5.6476,-5.6472,-5.6513,-5.658,-5.6568,-5.6634,-5.6641,-5.6659,-5.67,-5.6675,-5.6714,-5.6701,-5.6738,-5.6732,-5.6794,-5.6802,-5.6803,-5.68,-5.6805,-5.6805,-5.6819,-5.6811,-5.6793,-5.6792,-5.6791,-5.679,0,-5.6534,-5.6534,-5.6605,-5.6624,-5.663,-5.6679,-5.6694,-5.6732,-5.6733,-5.6785,-5.6796,-5.6798,-5.6841,-5.6835,-5.6882,-5.6878,-5.6955,-5.6944,-5.6948,-5.6946,-5.6999,-5.6994,-5.7171,-5.7193,-5.7035,-5.7036,-5.7037,0,-5.6613,-5.6659,-5.6684,-5.671,-5.6725,-5.6768,-5.6793,-5.6783,-5.6809,-5.6839,-5.6873,-5.6914,-5.6946,-5.7015,-5.702,-5.7055,-5.7045,-5.7104,-5.705,-5.7054,-5.7046,-5.7044,-5.7048,-5.7115,-5.7117,-5.7119,-5.712,0,-5.6753,-5.675,-5.6789,-5.6827,-5.6858,-5.6887,-5.6913,-5.6936,-5.6928,-5.6959,-5.7003,-5.7029,-5.7077,-5.7118,-5.7152,-5.7162,-5.714,-5.7137,-5.7151,-5.7157,-5.7158,-5.7158,-5.6978,-5.7133,-5.7132,-5.7131,-5.713,-5.7129,-5.6854,-5.6894,-5.6918,-5.696,-5.6979,-5.7005,-5.7042,-5.7048,-5.7085,-5.7125,-5.7116,-5.7166,-5.7187,-5.723,-5.7244,-5.7282,-5.726,-5.728,-5.7285,-5.7291,-5.7297,-5.7151,-5.7288,-5.7287,-5.7287,-5.7286,-5.7286,0,-5.6993,-5.7007,-5.7046,-5.7085,-5.7118,-5.7096,-5.7124,-5.7153,-5.7198,-5.7219,-5.7252,-5.7302,-5.7342,-5.7349,-5.7386,-5.7415,-5.7405,-5.7425,-5.7423,-5.7425,-5.7314,-5.7299,-5.7432,-5.7432,-5.7432,-5.7432,-5.7432,-5.7432,-5.7069,-5.7135,-5.7136,-5.721,-5.7223,-5.7273,-5.7291,-5.7313,-5.7331,-5.7389,-5.7422,-5.7427,-5.7443,-5.748,-5.7515,-5.7516,-5.753,-5.7554,-5.7551,-5.7448,-5.7433,-5.7419,-5.7404,-5.7557,-5.7558,-5.7659,-5.766,-5.766]}]]